Location: Chaumontel
(49.1247°N, 2.4324°E)
Time: 00:10:27
(UTC+00:00)

IRIDIUM 103 - Pass Details

Date: 15 May 2025
Orbit: 775 x 779 km, 86.4° (Epoch: 12 June)

Event Time Altitude Azimuth Distance (km) Brightness Sun altitude
Exits shadow 01:27:48 30° 179° (S) 1,366 5.1 -18.4°
Maximum altitude 01:30:27 85° 92° (E) 790 4.3 -18.2°
Drops below altitude 10° 01:35:42 10° 5° (N) 2,344 7.9 -17.8°
Sets 01:38:04 0° 5° (N) 3,276 8.8 -17.6°
